World > North America > United States > Pennsylvania

Shamokin, Pennsylvania Regional Weather

Lat: 40.79N, Lon: 76.55W
Wx Zone: PAZ052
Warning NWS WEATHER ALERT - (More Info. Click Here) Warning
Feedback

Shamokin, PA Regional Weather

Expires:202003291500;;255392
ASUS41 KOKX 291414
RWROKX

Regional Weather Roundup
National Weather Service New York NY
1000 AM EDT SUN MAR 29 2020

Note: "FAIR" indicates few or no clouds below 12,000 feet with no
significant weather and/or obstructions to visibility.


PAZ047>061-062-071-291500-
Eastern Pennsylvania
  
CITY           SKY/WX    TMP DP  RH WIND       PRES   REMARKS
Philadelphia   CLOUDY    48  46  93 NE10      30.01R                  
Allentown      CLOUDY    48  44  86 E9        30.00F FOG              
Scranton       PTSUNNY   49  42  77 VRB5      29.93F                  
$$


SKY/WX - Weather  TMP - Temperature  DP - Dew Point  RH - Relative Humidity
WIND - Wind Direction/Speed PRES - Barometric Pressure VSB - Visibility
WCI - Wind Chill Index E13G22 Wind - East Wind 13 mph/Gusts of 22 mph
Shamokin Weather Map
UTC Time: 3/29/2020, 14:55
Your Time: